Weather reports worldwide

Advertisment
Donna Nook RAF, United Kingdom (3385): temperature & dewpoint: 09.12.2018 22:00:00 - 15.12.2018 22:00:00 (GMT)Donna Nook RAF, United Kingdom (3385): wind speed & gusts: 09.12.2018 22:00:00 - 15.12.2018 22:00:00 (GMT)Donna Nook RAF, United Kingdom (3385): wind direction: 09.12.2018 22:00:00 - 15.12.2018 22:00:00 (GMT)Donna Nook RAF, United Kingdom (3385): reduced air pressure: 09.12.2018 22:00:00 - 15.12.2018 22:00:00 (GMT)Donna Nook RAF, United Kingdom (3385): visibility: 09.12.2018 22:00:00 - 15.12.2018 22:00:00 (GMT)
Date & Time tt [°C] td [°C] ff [km/h] ff [kn] fx [km/h] fx [kn] dd ppp [hPa] vv [km]
15.12.2018 22:00:00 - - - - - - - - -
15.12.2018 21:00:00 3,1 2,5 37 20 70 38 SSE 1000,1 16
15.12.2018 20:00:00 2,8 2,1 50 27 81 44 SE 1000,6 3,7
15.12.2018 19:00:00 2,8 2,0 57 31 91 49 SE 1001,3 6
15.12.2018 18:00:00 2,5 1,2 57 31 83 45 SE 1002,8 5
15.12.2018 17:00:00 2,5 0,5 48 26 72 39 SE 1005,1 7
15.12.2018 16:00:00 2,9 -0,8 46 25 68 37 SE 1006,7 15
15.12.2018 15:00:00 2,7 -1,6 44 24 74 40 SE 1008,7 17
15.12.2018 14:00:00 2,7 -1,8 46 25 67 36 SE 1010,1 19
15.12.2018 13:00:00 2,6 -1,9 41 22 65 35 SE 1011,7 19
15.12.2018 12:00:00 2,2 -2,1 41 22 63 34 SE 1013,8 17
15.12.2018 11:00:00 1,7 -2,6 37 20 55 30 SSE 1015,5 19
15.12.2018 10:00:00 1,5 -2,4 29 16 50 27 SSE 1017,0 13
15.12.2018 09:00:00 1,1 -2,0 26 14 - - SSE 1017,8 11
15.12.2018 08:00:00 1,0 -1,7 24 13 - - SSE 1018,1 11
15.12.2018 07:00:00 1,0 -2,3 18 10 - - SSE 1019,0 12
15.12.2018 06:00:00 1,5 -1,2 18 10 - - SSE 1019,5 10
15.12.2018 05:00:00 1,1 -1,6 15 8 - - S 1020,0 11
15.12.2018 04:00:00 2,0 -1,0 15 8 - - S 1020,4 14
15.12.2018 03:00:00 2,5 -1,3 16 9 - - SSE 1021,0 18
15.12.2018 02:00:00 2,8 -1,0 15 8 - - SSE 1021,8 24
15.12.2018 01:00:00 3,1 -0,6 16 9 - - S 1021,9 25
15.12.2018 00:00:00 3,2 -0,4 13 7 - - SSE 1022,5 10
14.12.2018 23:00:00 3,0 0,0 13 7 - - SSE 1023,0 21
14.12.2018 22:00:00 2,8 0,1 11 6 - - S 1023,5 30
14.12.2018 21:00:00 2,8 0,3 13 7 - - SSE 1023,2 22
14.12.2018 20:00:00 3,2 0,3 11 6 - - SSE 1023,5 24
14.12.2018 19:00:00 3,8 0,8 16 9 - - SE 1023,8 30
14.12.2018 18:00:00 4,2 1,3 22 12 - - ESE 1023,9 29
14.12.2018 17:00:00 3,2 0,4 11 6 - - SE 1024,2 24
14.12.2018 16:00:00 3,6 0,3 8 4 - - SSE 1024,0 26
14.12.2018 15:00:00 4,4 0,9 8 4 - - S 1023,9 30
14.12.2018 14:00:00 5,1 0,0 9 5 - - SSE 1023,9 30
14.12.2018 13:00:00 5,0 0,3 11 6 - - S 1024,0 35
14.12.2018 12:00:00 5,0 0,5 8 4 - - SSE 1024,1 30
14.12.2018 11:00:00 4,2 0,2 13 7 - - SSE 1024,0 40
14.12.2018 10:00:00 4,8 0,5 26 14 - - ESE 1023,2 35
14.12.2018 09:00:00 2,7 0,4 11 6 - - SE 1023,3 10
14.12.2018 08:00:00 3,2 1,0 4 2 - - S 1023,5 29
14.12.2018 07:00:00 2,8 1,2 8 4 - - S 1023,4 28
14.12.2018 06:00:00 3,8 0,8 15 8 - - SSE 1023,6 35
14.12.2018 05:00:00 4,6 1,1 21 11 - - ESE 1023,4 30
14.12.2018 04:00:00 4,2 0,1 5 3 - - SSW 1023,2 35
14.12.2018 03:00:00 4,5 -0,2 8 4 - - SSE 1022,9 35
14.12.2018 02:00:00 5,3 -0,4 24 13 - - ESE 1022,9 30
14.12.2018 01:00:00 5,5 -1,3 24 13 - - ESE 1023,0 40
14.12.2018 00:00:00 5,3 -0,4 22 12 - - ESE 1023,0 10
13.12.2018 23:00:00 5,6 -1,3 28 15 - - E 1022,8 30
13.12.2018 22:00:00 5,5 0,0 31 17 - - ESE 1022,6 30
13.12.2018 21:00:00 5,6 0,0 35 19 - - E 1022,4 30
13.12.2018 20:00:00 5,5 -0,5 35 19 48 26 E 1022,4 30
13.12.2018 19:00:00 5,5 -0,2 31 17 - - ESE 1022,2 35
13.12.2018 18:00:00 5,7 0,4 31 17 - - ESE 1021,5 30
13.12.2018 17:00:00 5,9 1,3 34 18 - - E 1021,1 30
13.12.2018 16:00:00 5,9 1,1 34 18 - - ESE 1020,9 30
13.12.2018 15:00:00 6,0 -0,3 35 19 - - ESE 1020,5 35
13.12.2018 14:00:00 6,3 0,1 31 17 46 25 ESE 1020,2 35
13.12.2018 13:00:00 6,2 0,9 29 16 - - ESE 1020,5 35
13.12.2018 12:00:00 6,0 0,7 34 18 46 25 SE 1020,5 30
13.12.2018 11:00:00 5,9 1,2 31 17 54 29 SE 1020,4 29
13.12.2018 10:00:00 5,8 0,1 42 23 55 30 ESE 1020,3 30
13.12.2018 09:00:00 5,5 0,2 29 16 54 29 SE 1020,2 30
13.12.2018 08:00:00 5,5 0,3 39 21 59 32 SE 1019,7 30
13.12.2018 07:00:00 5,5 0,5 34 18 54 29 SE 1019,3 29
13.12.2018 06:00:00 5,5 0,4 35 19 50 27 SE 1019,1 30
13.12.2018 05:00:00 5,5 0,1 34 18 55 30 SE 1019,3 35
13.12.2018 04:00:00 5,6 1,2 41 22 54 29 ESE 1019,3 26
13.12.2018 03:00:00 5,1 -0,5 31 17 52 28 SE 1020,1 30
13.12.2018 02:00:00 5,3 0,3 35 19 54 29 SE 1020,6 30
13.12.2018 01:00:00 5,8 -0,2 42 23 55 30 SE 1020,5 27
13.12.2018 00:00:00 6,1 1,1 31 17 54 29 SE 1020,5 10
12.12.2018 23:00:00 6,0 2,7 31 17 54 29 SE 1020,6 30
12.12.2018 22:00:00 5,6 2,4 41 22 52 28 ESE 1021,0 30
12.12.2018 21:00:00 5,4 1,9 22 12 - - SE 1021,5 40
12.12.2018 20:00:00 4,9 1,2 24 13 - - SE 1022,0 40
12.12.2018 19:00:00 3,3 -0,7 16 9 - - SSE 1022,1 27
12.12.2018 18:00:00 3,8 -0,9 18 10 - - SSE 1022,3 29
12.12.2018 17:00:00 4,3 -0,6 21 11 - - SE 1022,6 35
12.12.2018 16:00:00 4,7 -0,9 22 12 - - SE 1022,8 40
12.12.2018 15:00:00 6,2 0,1 18 10 - - SE 1022,8 30
12.12.2018 14:00:00 7,1 0,8 18 10 - - SE 1023,2 30
12.12.2018 13:00:00 7,7 1,5 21 11 - - SSE 1023,7 30
12.12.2018 12:00:00 7,4 2,5 18 10 - - SE 1023,9 30
12.12.2018 11:00:00 6,7 3,1 15 8 - - SE 1024,2 28
12.12.2018 10:00:00 6,7 2,8 16 9 - - SE 1024,2 30
12.12.2018 09:00:00 6,2 3,4 18 10 - - SE 1024,1 10
12.12.2018 08:00:00 6,2 3,3 18 10 - - SE 1023,8 29
12.12.2018 07:00:00 6,3 3,3 18 10 - - SE 1023,5 35
12.12.2018 06:00:00 6,3 3,1 21 11 - - SE 1023,1 30
12.12.2018 05:00:00 5,9 3,3 18 10 - - SE 1023,1 28
12.12.2018 04:00:00 5,8 3,5 16 9 - - SE 1023,4 35
12.12.2018 03:00:00 5,0 3,3 13 7 - - SSE 1023,8 28
12.12.2018 02:00:00 5,0 3,3 13 7 - - SSE 1023,7 30
12.12.2018 01:00:00 5,1 3,3 15 8 - - SSE 1023,7 30
12.12.2018 00:00:00 4,3 2,7 15 8 54 29 SSE 1023,7 30
11.12.2018 23:00:00 3,8 2,4 15 8 - - SSE 1023,7 18
11.12.2018 22:00:00 3,0 1,9 15 8 - - SSE 1023,9 13
11.12.2018 21:00:00 2,8 1,9 16 9 - - SSE 1023,9 12
11.12.2018 20:00:00 3,0 1,9 15 8 - - SSE 1024,2 12
11.12.2018 19:00:00 4,1 2,9 16 9 - - SE 1024,0 18
11.12.2018 18:00:00 3,7 2,7 15 8 - - SE 1023,7 14
11.12.2018 17:00:00 3,5 1,8 18 10 - - SSE 1023,8 17
11.12.2018 16:00:00 3,9 1,6 13 7 - - SE 1023,8 17
11.12.2018 15:00:00 5,6 2,5 13 7 - - SE 1024,2 10
11.12.2018 14:00:00 7,0 3,4 13 7 - - SSE 1024,4 19
11.12.2018 13:00:00 6,7 3,7 9 5 - - SSE 1024,6 15
11.12.2018 12:00:00 6,3 3,7 8 4 - - S 1025,1 15
11.12.2018 11:00:00 4,1 2,4 8 4 - - S 1025,5 21
11.12.2018 10:00:00 2,6 0,2 8 4 - - S 1025,5 30
11.12.2018 09:00:00 1,3 -0,5 11 6 - - SSE 1025,8 27
11.12.2018 08:00:00 1,3 -0,5 9 5 - - S 1025,6 30
11.12.2018 07:00:00 1,5 -0,4 11 6 - - SSW 1025,5 30
11.12.2018 06:00:00 2,1 -1,1 5 3 - - SE 1025,6 35
11.12.2018 05:00:00 3,8 -0,3 2 1 - - S 1026,1 45
11.12.2018 04:00:00 3,9 -0,4 4 2 - - SW 1026,0 35
11.12.2018 03:00:00 3,7 0,3 5 3 - - W 1026,3 35
11.12.2018 02:00:00 3,2 0,8 5 3 - - WSW 1026,2 35
11.12.2018 01:00:00 1,7 0,1 9 5 - - WSW 1026,7 29
11.12.2018 00:00:00 2,1 0,3 9 5 - - WSW 1026,8 29
10.12.2018 23:00:00 2,4 0,6 11 6 - - W 1026,9 30
10.12.2018 22:00:00 2,2 0,5 11 6 - - W 1027,1 24
10.12.2018 21:00:00 2,5 1,0 9 5 - - WSW 1027,1 23
10.12.2018 20:00:00 3,1 1,2 11 6 - - WNW 1027,0 26
10.12.2018 19:00:00 2,4 1,1 11 6 - - W 1027,2 18
10.12.2018 18:00:00 2,6 1,4 13 7 - - W 1026,8 21
10.12.2018 17:00:00 3,1 1,5 13 7 - - W 1027,1 10
10.12.2018 16:00:00 4,5 2,2 11 6 - - W 1027,0 35
10.12.2018 15:00:00 6,5 2,0 16 9 - - WNW 1026,5 40
10.12.2018 14:00:00 6,8 1,7 18 10 - - WNW 1026,1 50
10.12.2018 13:00:00 6,6 2,2 22 12 - - WNW 1025,9 35
10.12.2018 12:00:00 6,4 2,9 18 10 - - WNW 1025,7 10
10.12.2018 11:00:00 4,8 2,8 15 8 - - W 1025,7 30
10.12.2018 10:00:00 3,8 2,5 16 9 - - W 1025,2 25
10.12.2018 09:00:00 2,6 1,8 16 9 - - W 1024,5 25
10.12.2018 08:00:00 2,3 1,4 18 10 - - W 1023,9 26
10.12.2018 07:00:00 2,5 1,7 18 10 - - W 1023,2 20
10.12.2018 06:00:00 2,9 1,9 21 11 - - W 1022,8 23
10.12.2018 05:00:00 2,3 1,1 16 9 - - W 1022,2 27
10.12.2018 04:00:00 2,8 1,8 16 9 - - W 1021,9 28
10.12.2018 03:00:00 2,8 1,4 16 9 - - W 1021,5 22
10.12.2018 02:00:00 2,5 1,2 13 7 - - W 1020,8 29
10.12.2018 01:00:00 2,6 1,0 11 6 - - WSW 1020,4 26
10.12.2018 00:00:00 2,7 1,0 13 7 - - WSW 1019,9 10
09.12.2018 23:00:00 2,9 1,2 11 6 - - W 1019,1 27
09.12.2018 22:00:00 2,9 0,8 11 6 - - WSW 1018,5 30

tt = temperature
td = dewpoint
ff = wind speed
fx = gusts
dd = wind direction
ppp = reduced air pressure
vv = visibility

Next stations